Date,TemperatureHighF,TemperatureAvgF,TemperatureLowF,DewpointHighF,DewpointAvgF,DewpointLowF,HumidityHigh,HumidityAvg,HumidityLow,PressureMaxIn,PressureMinIn,WindSpeedMaxMPH,WindSpeedAvgMPH,GustSpeedMaxMPH,PrecipitationSumIn
2013-1-1,42,39,32,30,27,17,69,61,53,29.97,29.83,18,11,26,0.00
2013-1-2,34,29,25,16,14,11,63,54,46,30.15,29.97,17,10,25,0.00
2013-1-3,34,29,25,19,16,15,71,59,46,30.18,30.06,12,7,17,0.00
2013-1-4,37,34,29,22,21,20,71,60,51,30.09,29.97,19,12,30,0.00
2013-1-5,42,35,31,23,22,19,68,57,44,30.30,30.00,15,8,24,0.00
2013-1-6,48,39,33,34,30,24,98,71,48,30.21,29.97,12,7,18,0.00
2013-1-7,47,39,32,30,27,23,78,63,39,30.39,30.03,18,7,23,0.00
2013-1-8,50,38,31,33,30,26,91,73,50,30.42,30.33,8,5,20,0.00
2013-1-9,52,43,31,41,36,29,94,79,61,30.39,30.15,15,5,21,0.00
2013-1-10,50,43,37,28,26,23,69,53,35,30.50,30.45,13,6,21,0.00
2013-1-11,47,44,41,46,40,32,98,84,66,30.50,30.09,14,8,20,0.00
2013-1-12,48,46,44,46,45,44,99,97,93,30.15,30.03,10,6,15,0.00
2013-1-13,48,45,42,48,44,41,99,98,95,30.15,30.00,11,6,16,0.00
2013-1-14,59,50,45,56,45,32,100,84,48,30.24,29.94,16,7,19,0.00
2013-1-15,41,39,38,38,32,28,92,75,64,30.30,30.21,15,7,20,0.00
2013-1-16,42,38,36,41,37,33,97,94,84,30.18,29.77,24,11,26,0.00
2013-1-17,43,40,37,37,33,29,92,76,57,30.06,29.91,16,7,17,0.00
2013-1-18,38,32,28,30,15,4,74,52,32,30.47,29.97,18,9,28,0.00
2013-1-19,52,40,29,35,24,13,76,53,33,30.42,29.97,20,12,34,0.00
2013-1-20,55,45,33,29,24,13,62,45,26,30.00,29.71,24,14,41,0.00
2013-1-21,35,30,26,26,16,9,98,58,40,30.09,29.83,14,6,21,0.00
2013-1-22,26,20,15,18,0,-6,73,46,34,30.18,29.83,21,16,31,0.00
2013-1-23,20,15,11,4,-2,-7,72,51,39,30.24,30.15,21,10,26,0.00
2013-1-24,24,18,11,4,0,-7,77,51,27,30.39,30.09,20,11,35,0.00
2013-1-25,24,18,13,17,5,-4,94,62,40,30.39,30.03,16,8,20,0.00
2013-1-26,27,20,13,11,8,6,95,67,44,30.36,30.03,15,10,26,0.00
2013-1-27,34,25,16,15,11,6,71,56,40,30.50,30.36,15,8,24,0.00
2013-1-28,36,31,24,35,26,14,96,83,64,30.47,30.00,14,6,18,0.00
2013-1-29,49,41,35,43,39,34,97,94,82,30.09,29.97,9,5,15,0.00
2013-1-30,55,49,41,53,48,41,99,96,90,30.06,29.44,20,11,39,0.00
2013-1-31,54,41,31,53,22,13,97,48,38,29.80,29.26,37,22,46,0.00
2013-2-1,32,29,24,17,10,4,66,45,33,30.21,29.83,25,13,35,0.00
2013-2-2,31,25,19,21,8,4,92,51,33,30.30,30.06,16,10,23,0.00
2013-2-3,31,27,20,24,21,17,97,83,63,30.03,29.77,9,4,17,0.00
2013-2-4,30,27,22,23,13,9,92,58,42,29.97,29.83,18,11,29,0.00
2013-2-5,34,30,27,31,28,23,96,92,86,29.94,29.88,13,5,14,0.00
2013-2-6,40,35,30,33,24,15,95,69,45,30.33,29.88,22,10,29,0.00
2013-2-7,40,32,26,35,18,7,81,59,39,30.47,30.30,14,8,20,0.00
2013-2-8,42,38,31,40,36,30,99,93,84,30.27,29.59,38,21,46,0.00
2013-2-9,33,28,22,29,18,7,100,71,41,30.30,29.71,29,18,41,0.00
2013-2-10,35,26,16,27,14,6,83,64,34,30.47,30.30,12,6,20,0.00
2013-2-11,54,44,34,52,42,28,99,93,79,30.33,29.65,15,8,27,0.00
2013-2-12,47,42,34,43,28,24,90,58,44,29.97,29.74,27,12,38,0.00
2013-2-13,41,36,29,33,28,24,97,75,56,29.94,29.68,12,6,16,0.00
2013-2-14,44,37,33,36,34,32,98,88,63,30.00,29.68,12,7,17,0.00
2013-2-15,47,41,34,41,35,31,96,81,67,30.03,29.91,15,8,20,0.00
2013-2-16,43,37,32,34,29,20,91,74,56,29.91,29.71,15,11,27,0.00
2013-2-17,32,28,21,18,6,-1,60,40,30,29.97,29.65,30,21,43,0.00
2013-2-18,36,27,18,13,5,-1,50,40,30,30.24,30.00,24,14,41,0.00
2013-2-19,47,40,30,45,33,13,96,78,50,30.21,29.68,21,10,32,0.00
2013-2-20,39,32,27,27,14,9,62,50,40,29.97,29.74,27,18,40,0.00
2013-2-21,35,29,24,15,13,10,62,51,40,30.24,29.97,28,15,39,0.00
2013-2-22,40,33,25,36,25,14,87,75,62,30.36,30.24,12,7,21,0.00
2013-2-23,42,41,39,42,40,37,99,96,89,30.24,29.77,25,11,29,0.00
2013-2-24,48,40,33,39,33,22,98,76,50,29.94,29.74,22,13,34,0.00
2013-2-25,42,38,30,33,28,22,74,68,59,30.21,30.00,11,7,18,0.00
2013-2-26,43,38,29,39,33,25,94,82,71,30.27,29.85,32,14,42,0.00
2013-2-27,55,46,41,53,42,37,98,87,64,29.83,29.47,30,14,46,0.00
2013-2-28,49,44,39,40,35,28,92,70,54,29.62,29.53,13,7,22,0.00
2013-3-1,44,40,34,32,29,26,86,67,49,29.77,29.59,19,10,23,0.00
2013-3-2,42,37,32,26,24,23,72,60,49,29.77,29.68,16,11,25,0.00
2013-3-3,38,33,30,22,20,18,70,58,47,29.74,29.68,21,13,26,0.00
2013-3-4,41,34,28,21,19,15,66,53,41,29.88,29.77,25,16,32,0.00
2013-3-5,44,38,31,35,27,21,83,65,49,30.00,29.91,17,8,24,0.00
2013-3-6,41,40,38,38,35,32,92,83,78,29.94,29.74,43,31,61,0.00
2013-3-7,39,36,34,34,32,30,94,87,74,30.06,29.85,25,16,49,0.00
2013-3-8,41,35,31,34,32,31,99,89,65,30.15,29.97,21,14,28,0.00
2013-3-9,56,44,35,35,25,17,77,51,22,30.27,30.12,18,11,28,0.00
2013-3-10,40,38,31,37,34,29,97,86,78,30.39,30.30,13,7,16,0.00
2013-3-11,47,42,34,46,40,33,98,94,87,30.30,30.09,9,5,19,0.00
2013-3-12,54,48,45,53,46,43,96,91,77,30.09,29.71,17,11,24,0.00
2013-3-13,50,44,38,39,31,22,84,63,33,29.88,29.80,17,9,33,0.00
2013-3-14,42,36,31,25,15,9,62,43,30,29.94,29.85,24,14,45,0.00
2013-3-15,49,39,30,25,18,10,53,43,36,29.97,29.71,19,11,31,0.00
2013-3-16,43,37,33,33,28,22,97,72,51,29.88,29.77,14,8,20,0.00
2013-3-17,39,34,29,32,23,17,96,65,42,30.27,29.88,22,9,26,0.00
2013-3-18,39,36,31,39,27,17,97,72,52,30.36,29.97,28,18,37,0.00
2013-3-19,48,42,39,40,36,19,98,84,39,29.91,29.68,21,12,34,0.00
2013-3-20,47,40,33,26,19,15,57,42,28,29.88,29.80,20,11,32,0.00
2013-3-21,42,34,29,29,23,15,94,68,43,29.80,29.65,16,8,25,0.00
2013-3-22,42,34,28,21,18,13,67,52,39,29.88,29.74,20,12,32,0.00
2013-3-23,46,38,31,23,20,18,65,48,32,29.91,29.83,23,12,32,0.00
2013-3-24,43,38,31,29,23,17,67,55,37,29.94,29.71,17,9,21,0.00
2013-3-25,39,36,33,35,33,29,98,87,67,29.68,29.41,36,16,39,0.00
2013-3-26,49,42,34,35,32,28,98,71,44,29.85,29.56,13,7,23,0.00
2013-3-27,51,43,35,30,28,24,71,57,35,29.97,29.85,18,12,27,0.00
2013-3-28,49,43,35,32,29,27,78,59,45,30.09,29.94,18,10,24,0.00
2013-3-29,54,45,37,36,29,23,71,53,32,30.12,30.06,20,9,24,0.00
2013-3-30,53,45,38,39,32,-100,80,64,33,30.18,30.06,15,8,20,0.00
2013-3-31,48,45,39,47,38,28,98,79,51,30.12,29.68,20,9,31,0.00
2013-4-1,64,51,42,48,40,18,96,69,32,29.88,29.62,26,12,35,0.00
2013-4-2,44,39,32,17,14,11,52,36,26,30.06,29.88,24,12,34,0.00
2013-4-3,46,40,33,17,13,8,45,33,24,30.27,30.06,23,14,40,0.00
2013-4-4,43,38,31,31,21,11,66,50,35,30.39,30.12,16,9,25,0.00
2013-4-5,58,46,38,40,33,21,92,66,25,30.09,29.71,19,8,27,0.00
2013-4-6,45,41,35,31,22,13,68,49,29,30.30,29.97,17,12,25,0.00
2013-4-7,52,46,38,46,38,31,84,76,69,30.30,30.03,22,11,30,0.00
2013-4-8,59,52,47,46,45,43,93,78,61,30.09,29.97,12,7,20,0.00
2013-4-9,83,64,46,52,47,41,94,61,22,29.97,29.91,18,9,30,0.00
2013-4-10,69,57,49,56,49,45,93,75,55,29.94,29.80,20,8,41,0.00
2013-4-11,60,52,46,58,51,44,98,95,90,30.00,29.77,20,10,25,0.00
2013-4-12,46,44,43,44,43,43,98,97,91,29.97,29.68,26,18,38,0.00
2013-4-13,50,46,42,45,43,40,97,88,78,29.97,29.74,13,7,22,0.00
2013-4-14,59,51,44,45,39,27,96,66,29,30.21,29.97,21,7,32,0.00
2013-4-15,51,48,46,44,39,34,90,73,62,30.36,30.21,15,7,24,0.00
2013-4-16,58,52,47,54,48,44,92,86,80,30.36,30.15,18,10,28,0.00
2013-4-17,60,56,52,56,48,37,93,75,51,30.27,30.12,12,6,20,0.00
2013-4-18,54,52,48,53,46,35,97,84,50,30.33,30.12,10,5,14,0.00
2013-4-19,67,57,51,63,56,51,98,95,84,30.09,29.68,31,15,36,0.00
2013-4-20,58,53,49,56,36,24,97,57,31,30.24,29.71,21,13,30,0.00
2013-4-21,48,44,38,32,26,21,61,51,38,30.59,30.27,14,10,26,0.00
2013-4-22,46,45,44,41,36,31,85,72,59,30.62,30.47,26,19,35,0.00
2013-4-23,50,46,42,42,40,38,95,83,73,30.45,30.09,27,15,33,0.00
2013-4-24,55,49,41,51,45,38,95,85,66,30.09,29.85,19,11,30,0.00
2013-4-25,58,52,47,52,39,27,90,63,31,30.27,29.88,21,11,31,0.00
2013-4-26,57,53,43,45,40,33,82,62,42,30.39,30.27,12,7,15,0.00
2013-4-27,58,53,45,43,38,-100,75,60,49,30.42,30.30,12,7,19,0.00
2013-4-28,57,52,43,48,43,37,86,71,59,30.33,30.21,13,7,18,0.00
2013-4-29,53,52,50,49,49,47,94,89,83,30.24,30.18,11,6,16,0.00
2013-4-30,56,53,50,51,47,44,92,82,68,30.33,30.18,13,9,17,0.00
2013-5-1,55,51,47,48,45,42,94,82,70,30.47,30.30,14,8,18,0.00
2013-5-2,56,53,49,48,46,44,88,77,63,30.47,30.33,11,6,14,0.00
2013-5-3,53,52,49,49,44,41,89,77,62,30.47,30.36,20,12,14,0.00
2013-5-4,55,51,44,47,45,42,94,79,70,30.36,30.27,15,10,20,0.00
2013-5-5,52,49,47,45,42,39,88,76,67,30.30,30.24,20,11,24,0.00
2013-5-6,54,50,48,49,47,45,97,89,80,30.27,30.15,14,8,18,0.00
2013-5-7,55,52,49,54,51,48,98,96,91,30.15,30.06,15,8,15,0.00
2013-5-8,60,58,56,59,56,53,98,94,87,30.09,29.97,16,10,29,0.00
2013-5-9,68,59,55,59,56,54,97,89,62,30.00,29.88,10,5,14,0.00
2013-5-10,69,62,57,60,56,-100,93,85,71,30.00,29.91,17,7,19,0.00
2013-5-11,67,61,59,62,58,-100,97,91,70,29.88,29.71,25,10,0,0.00
2013-5-12,66,61,53,63,44,25,97,59,26,29.94,29.68,24,11,0,0.00
2013-5-13,56,50,43,35,30,21,72,47,28,30.09,29.94,20,10,29,0.00
2013-5-14,59,50,40,46,34,26,80,56,28,30.12,30.03,16,10,21,0.00
2013-5-15,64,58,54,58,53,50,89,83,73,30.00,29.71,16,10,19,0.00
2013-5-16,70,56,54,60,34,-100,94,73,47,29.83,29.71,10,5,17,0.00
2013-5-17,71,62,55,60,38,-100,78,52,33,30.18,29.83,13,7,21,0.00
2013-5-18,60,57,54,56,53,49,92,87,76,30.33,30.21,12,4,18,0.00
2013-5-19,57,56,55,57,55,53,98,96,91,30.30,30.15,18,10,21,0.00
2013-5-20,65,60,56,64,59,55,99,95,86,30.18,29.97,15,5,15,0.00
2013-5-21,78,68,62,68,64,60,96,86,70,29.97,29.85,15,8,20,0.00
2013-5-22,70,64,58,66,61,57,97,90,81,29.91,29.85,16,8,20,0.00
2013-5-23,73,63,59,67,61,57,97,91,80,29.91,29.80,22,13,30,0.00
2013-5-24,68,57,46,64,54,42,97,90,78,29.94,29.71,23,11,31,0.00
2013-5-25,58,51,44,45,40,34,92,70,42,30.00,29.91,33,19,45,0.00
2013-5-26,68,58,47,38,36,31,69,46,25,30.18,30.00,24,13,35,0.00
2013-5-27,71,58,46,51,42,34,79,58,32,30.27,30.15,13,6,21,0.00
2013-5-28,63,57,54,57,52,45,97,85,56,30.24,30.12,13,5,21,0.00
2013-5-29,76,63,55,65,59,54,97,87,67,30.12,30.03,14,5,18,0.00
2013-5-30,83,72,64,68,63,58,86,75,59,30.15,30.06,14,8,22,0.00
2013-5-31,85,73,64,69,64,59,90,75,57,30.12,30.00,18,8,21,0.00
2013-6-1,80,70,61,67,61,-100,90,78,64,30.03,29.94,17,11,24,0.00
2013-6-2,77,66,59,70,62,56,96,85,72,29.94,29.83,17,10,25,0.00
2013-6-3,73,65,58,68,63,57,99,94,78,29.85,29.80,14,7,25,0.00
2013-6-4,69,64,57,65,51,43,92,65,40,30.09,29.85,17,8,24,0.00
2013-6-5,66,62,56,59,52,44,97,71,51,30.21,30.09,14,6,18,0.00
2013-6-6,65,62,58,62,60,58,99,93,84,30.12,30.00,15,7,17,0.00
2013-6-7,66,62,61,66,62,60,99,98,95,29.97,29.56,18,8,24,0.00
2013-6-8,77,69,59,66,63,57,99,82,66,30.03,29.50,18,8,28,0.00
2013-6-9,74,68,63,67,61,59,90,79,63,30.18,30.06,13,5,15,0.00
2013-6-10,71,65,62,66,63,61,99,93,79,30.15,29.85,12,4,20,0.00
2013-6-11,82,76,64,70,65,61,99,70,55,29.83,29.62,16,11,25,0.00
2013-6-12,80,72,66,61,57,53,84,61,39,29.83,29.71,18,11,29,0.00
2013-6-13,70,67,63,66,61,54,97,81,60,29.83,29.44,15,8,31,0.58
2013-6-14,67,63,56,58,55,52,88,77,65,29.88,29.59,15,8,40,0.00
2013-6-15,80,70,60,63,56,51,88,64,37,30.00,29.88,15,9,20,0.00
2013-6-16,83,72,64,66,61,57,83,70,46,29.97,29.80,17,9,32,0.00
2013-6-17,86,74,67,68,66,62,94,77,48,29.91,29.83,12,8,20,0.26
2013-6-18,71,68,64,66,64,62,97,88,77,29.88,29.80,16,6,27,0.93
2013-6-19,73,68,64,58,55,51,75,63,51,30.15,29.94,18,10,22,0.00
2013-6-20,72,66,58,60,56,51,90,71,48,30.27,30.15,16,8,21,0.00
2013-6-22,71,69,65,64,62,57,85,77,64,30.27,30.15,16,10,22,0.00
2013-6-23,77,70,65,69,63,55,97,80,63,30.21,30.06,18,8,24,0.00
2013-6-24,92,80,72,73,69,60,96,71,46,30.09,29.97,14,7,23,0.00
2013-6-25,91,81,70,72,68,65,90,66,44,30.00,29.83,19,9,24,0.00
2013-6-26,87,77,70,71,66,63,94,71,44,29.85,29.80,13,8,20,0.12
2013-6-27,77,74,71,71,70,69,96,89,82,29.80,29.59,16,11,27,0.00
2013-6-28,83,75,68,73,69,66,95,83,61,29.59,29.50,13,8,25,0.04
2013-6-29,79,71,64,70,67,63,97,88,66,29.68,29.50,14,8,24,0.04
2013-6-30,72,68,64,68,66,63,98,95,87,29.88,29.71,16,8,18,0.01
2013-7-1,74,69,66,72,68,65,98,97,91,30.03,29.88,12,9,24,0.05
2013-7-2,76,69,66,72,67,65,98,95,84,30.18,30.03,14,9,20,0.00
2013-7-3,77,72,67,73,69,64,97,92,87,30.24,30.18,13,6,18,1.93
2013-7-4,78,76,74,74,73,72,96,90,83,30.27,30.21,8,6,13,0.00
2013-7-5,84,76,73,74,71,70,92,85,69,30.21,30.12,12,7,16,0.00
2013-7-6,93,82,75,75,73,68,91,75,46,30.15,30.03,13,8,19,0.00
2013-7-7,93,83,76,73,72,69,86,69,48,30.06,29.94,15,8,21,0.00
2013-7-8,86,77,73,71,68,67,87,76,60,30.06,30.00,11,8,23,0.25
2013-7-9,85,76,72,73,70,67,95,82,61,30.06,30.00,17,7,47,0.33
2013-7-10,87,75,68,76,66,-100,97,81,56,30.03,29.83,17,8,25,0.56
2013-7-11,84,77,70,75,72,67,94,84,63,29.90,29.83,14,7,17,0.10
2013-7-12,76,72,69,70,67,62,97,86,66,30.04,29.91,21,13,32,0.37
2013-7-13,78,74,70,74,72,69,98,93,87,30.28,30.06,13,6,22,0.00
2013-7-14,86,80,74,76,73,71,93,79,63,30.34,30.26,12,8,19,0.00
2013-7-15,93,84,77,74,72,69,89,70,47,30.26,30.12,13,8,20,0.00
2013-7-16,89,83,77,73,69,62,82,64,45,30.17,30.12,9,4,11,0.00
2013-7-17,87,83,75,75,72,68,84,71,62,30.18,30.08,15,6,16,0.00
2013-7-18,92,84,78,78,73,68,79,70,59,30.08,29.97,11,7,18,0.00
2013-7-19,98,88,80,78,75,70,87,67,41,29.98,29.82,19,10,23,0.00
2013-7-20,95,85,77,75,70,-100,83,63,43,29.83,29.73,15,10,25,0.00
2013-7-21,82,77,74,74,71,68,93,82,66,29.95,29.83,16,8,19,0.01
2013-7-22,81,77,75,76,75,73,97,94,85,29.94,29.80,12,7,15,0.05
2013-7-23,84,78,73,76,74,71,97,85,66,29.79,29.57,12,8,24,0.39
2013-7-24,84,78,73,72,67,57,88,70,56,29.89,29.62,15,8,18,0.00
2013-7-25,72,67,65,61,59,55,85,75,59,30.02,29.90,22,15,30,0.00
2013-7-26,76,71,65,68,63,60,90,78,65,30.05,29.97,13,9,23,0.00
2013-7-27,78,72,65,70,67,63,92,84,71,30.06,29.97,15,8,18,0.00
2013-7-28,77,72,65,71,69,64,97,91,81,29.99,29.93,13,6,17,0.26
2013-7-29,83,74,68,71,66,55,97,79,41,30.10,29.96,12,6,25,0.19
2013-7-30,80,72,62,64,58,55,80,62,43,30.17,30.10,14,7,17,0.00
2013-7-31,78,72,63,64,61,57,82,69,57,30.16,30.05,11,7,16,0.00
2013-8-1,73,72,72,70,63,61,89,74,69,30.05,29.96,11,6,13,0.00
2013-8-2,83,79,75,69,64,59,79,61,45,29.93,29.88,18,7,21,0.00
2013-8-3,76,72,70,69,66,64,89,82,72,29.93,29.89,10,6,15,0.00
2013-8-4,80,76,66,60,55,52,68,49,40,29.96,29.86,20,9,26,0.00
2013-8-5,77,69,60,61,53,46,73,59,36,30.06,29.97,12,8,17,0.00
2013-8-6,78,71,62,62,59,54,80,67,52,30.13,30.04,13,6,17,0.00
2013-8-7,77,73,71,69,66,62,91,79,71,30.14,30.08,18,10,21,0.00
2013-8-8,78,74,71,73,71,69,98,91,81,30.07,30.02,23,10,26,2.37
2013-8-9,83,75,71,75,72,69,97,93,76,30.03,29.83,17,8,20,0.03
2013-8-10,82,77,72,75,67,61,96,72,52,30.03,29.86,11,6,16,0.00
2013-8-11,75,71,65,69,62,58,91,73,58,30.13,30.04,12,6,16,0.00
2013-8-12,78,73,69,71,69,67,94,88,79,30.04,29.94,9,4,15,0.02
2013-8-13,74,71,69,74,68,-100,99,93,82,29.94,29.72,15,5,22,1.72
2013-8-14,74,68,61,69,55,49,94,64,43,30.03,29.75,20,12,31,0.00
2013-8-15,74,61,56,57,42,-100,82,60,46,30.15,30.05,11,8,18,0.00
2013-8-16,76,67,59,60,51,-100,82,63,48,30.20,30.13,10,6,13,0.00
2013-8-17,76,67,58,63,57,-100,94,73,59,30.28,30.21,7,4,9,0.00
2013-8-18,75,69,63,63,61,53,92,76,60,30.25,30.14,14,7,19,0.00
2013-8-19,77,67,62,64,53,-100,90,71,53,30.14,30.05,9,5,16,0.00
2013-8-20,69,69,69,64,64,64,84,84,84,30.07,30.07,5,5,10,0.00
2013-8-21,83,78,76,73,71,67,86,79,66,30.17,30.08,12,8,16,0.00
2013-8-22,80,76,73,72,70,67,93,80,71,30.08,29.92,11,7,23,0.44
2013-8-23,79,75,69,66,62,57,72,63,48,30.07,29.97,13,6,17,0.00
2013-8-24,73,69,61,65,57,-100,92,68,57,30.34,30.08,19,8,24,0.03
2013-8-25,78,73,66,61,56,50,80,55,43,30.41,30.26,15,9,18,0.00
2013-8-28,77,76,76,71,70,69,86,82,78,29.87,29.85,11,7,13,0.00
2013-8-29,76,75,71,67,66,66,84,75,71,30.01,29.99,11,9,20,0.00
2013-8-30,82,80,75,69,68,66,81,66,59,30.00,29.88,15,9,18,0.00
2013-8-31,81,76,76,72,65,-100,82,74,70,29.86,29.80,14,11,23,0.00
2013-9-1,80,78,76,72,72,72,89,84,76,29.85,29.81,12,9,19,0.00
2013-9-2,69,69,69,68,68,68,98,98,98,29.77,29.77,3,3,4,0.00
2013-9-3,81,76,68,72,63,57,90,64,50,29.87,29.75,13,8,19,0.00
2013-9-4,80,72,63,59,56,53,84,61,40,30.00,29.88,12,8,21,0.00
2013-9-5,76,70,59,60,55,42,84,61,34,30.11,29.95,13,8,21,0.00
2013-9-6,68,63,55,51,47,44,77,58,42,30.24,30.12,17,8,22,0.00
2013-9-7,74,63,51,57,49,-100,86,64,35,30.13,29.92,13,7,20,0.00
2013-9-8,82,73,66,63,58,45,86,60,40,30.04,29.81,20,11,24,0.00
2013-9-9,71,68,65,61,53,48,76,60,49,30.22,30.06,17,11,26,0.00
2013-9-10,82,76,70,72,67,61,86,76,70,30.17,30.04,14,9,25,0.00
2013-9-11,83,77,73,72,69,66,83,77,67,30.11,29.99,14,8,21,0.00
2013-9-12,80,75,71,71,69,66,93,81,73,30.00,29.70,15,9,28,0.20
2013-9-13,76,70,61,63,56,49,72,62,49,29.83,29.66,23,11,26,0.00
2013-9-14,68,58,52,50,45,-100,85,66,47,30.11,29.84,13,8,19,0.00
2013-9-15,70,58,48,56,49,44,87,72,54,30.20,30.08,12,8,19,0.00
2013-9-16,69,64,58,60,56,52,89,79,59,30.17,30.03,12,7,21,0.03
2013-9-17,61,56,47,51,42,38,82,59,44,30.41,30.19,19,9,30,0.01
2013-9-18,58,48,45,50,42,41,86,83,75,30.33,30.19,8,6,10,0.00
2013-9-19,71,61,51,56,52,48,93,74,43,30.19,30.08,14,7,17,0.00
2013-9-20,71,65,56,62,58,53,92,78,63,30.08,30.00,13,8,16,0.00
2013-9-21,73,67,62,67,56,-100,87,78,74,30.01,29.68,13,10,21,0.00
2013-9-22,70,64,54,62,49,44,97,59,43,29.89,29.69,19,11,27,0.00
2013-9-23,66,56,47,45,42,41,81,63,42,30.02,29.89,16,9,20,0.00
2013-9-24,70,57,45,50,45,43,91,67,42,30.04,29.87,15,8,20,0.00
2013-9-25,67,60,48,54,50,44,89,70,56,29.94,29.88,10,6,26,0.00
2013-9-26,70,64,52,61,58,51,95,79,69,30.04,29.92,14,7,17,0.00
2013-9-27,66,63,53,56,54,51,93,72,63,30.24,30.08,14,9,20,0.00
2013-9-28,70,64,60,57,53,-100,83,71,58,30.30,30.22,15,9,18,0.00
2013-9-29,68,65,62,57,53,50,79,66,57,30.19,30.07,13,8,18,0.00
2013-9-30,69,65,53,57,56,52,96,72,60,30.06,29.97,9,7,15,0.00
2013-10-1,68,67,66,62,60,58,85,78,74,29.94,29.93,7,6,7,0.00
2013-10-2,83,75,63,61,59,57,85,59,41,29.99,29.91,14,8,22,0.00
2013-10-3,73,69,59,62,58,52,91,70,51,30.11,30.01,11,5,12,0.00
2013-10-4,83,71,61,66,63,57,96,78,50,30.06,29.97,13,6,18,0.00
2013-10-5,72,71,70,63,63,63,80,77,75,30.01,29.99,8,8,13,0.00
2013-10-6,65,65,65,65,65,65,99,99,99,30.04,30.04,8,8,10,0.00
2013-10-7,63,62,61,58,57,56,86,85,84,29.97,29.90,15,8,27,0.00
2013-10-8,65,60,52,55,46,41,80,62,42,30.28,29.99,18,10,23,0.00
2013-10-9,63,62,61,53,51,46,75,68,58,30.35,30.24,26,20,30,0.00
2013-10-10,64,61,58,61,58,52,94,89,73,30.24,30.03,28,24,37,0.34
2013-10-11,65,64,62,62,61,59,96,91,82,30.04,29.96,28,21,37,0.57
2013-10-12,66,62,62,59,54,-100,88,77,68,30.23,30.02,35,22,39,0.01
2013-10-13,63,60,59,56,53,50,83,75,70,30.35,30.24,30,20,35,0.00
2013-10-14,62,59,55,52,50,49,80,72,66,30.33,30.25,17,9,22,0.00
2013-10-15,66,59,48,58,52,46,99,78,57,30.25,30.10,16,8,18,0.00
2013-10-16,64,62,61,60,59,57,94,90,78,30.09,29.93,11,6,18,0.00
2013-10-17,68,64,60,63,61,59,97,92,82,29.92,29.72,13,7,21,0.00
2013-10-18,67,61,54,63,46,42,92,59,41,29.98,29.70,18,11,30,0.00
2013-10-19,64,55,45,56,45,-100,90,72,61,29.98,29.76,11,5,14,0.05
2013-10-20,62,55,48,57,40,33,93,61,34,30.06,29.75,20,9,25,0.00
2013-10-21,66,56,44,48,41,33,78,59,31,30.14,29.99,18,8,24,0.00
2013-10-22,70,58,50,51,46,41,90,68,41,29.98,29.75,19,7,24,0.00
2013-10-23,55,50,44,47,40,36,80,70,56,29.80,29.59,18,10,26,0.10
2013-10-24,52,45,39,36,31,24,82,60,33,30.01,29.76,19,10,27,0.00
2013-10-25,54,45,38,33,30,27,71,58,37,30.23,30.02,20,10,26,0.00
2013-10-26,56,46,36,36,29,-100,79,57,32,30.22,29.92,22,10,30,0.00
2013-10-27,58,51,44,34,32,29,64,49,33,30.11,29.87,18,10,28,0.00
2013-10-28,62,48,37,38,32,-100,80,59,35,30.27,30.12,13,5,19,0.00
2013-10-29,54,53,51,46,42,37,78,65,55,30.38,30.29,18,12,24,0.00
2013-10-30,57,51,41,55,47,39,94,88,75,30.33,30.18,5,3,13,0.02
2013-10-31,64,60,52,61,57,51,96,90,81,30.22,29.86,20,9,26,0.02
2013-11-1,69,64,60,61,59,56,98,86,70,29.82,29.58,19,11,30,0.06
2013-11-2,63,58,52,59,55,46,99,89,66,29.71,29.61,6,4,10,0.00
2013-11-3,50,46,35,42,33,21,81,60,42,30.40,29.82,18,11,25,0.00
2013-11-4,49,42,33,35,26,19,66,55,45,30.62,30.41,21,10,27,0.00
2013-11-5,56,52,49,44,40,35,71,64,57,30.62,30.48,14,8,21,0.00
2013-11-6,60,54,39,56,48,37,94,82,64,30.45,30.08,14,8,19,0.00
2013-11-7,64,56,41,61,51,32,97,85,64,30.06,29.75,18,10,27,0.06
2013-11-8,49,43,38,35,28,24,72,56,39,30.22,29.94,21,10,31,0.00
2013-11-9,51,43,34,34,25,-100,73,54,34,30.29,30.02,12,8,18,0.00
2013-11-10,62,53,46,35,29,23,63,41,30,30.05,29.82,26,15,38,0.00
2013-11-11,55,48,40,34,27,24,54,44,31,30.21,29.98,19,11,34,0.00
2013-11-12,51,39,30,36,25,15,88,58,43,30.27,29.93,29,15,36,0.00
2013-11-13,39,32,26,17,13,7,63,47,25,30.36,30.27,17,10,23,0.00
2013-11-14,55,40,30,21,16,6,62,40,14,30.28,30.18,21,10,29,0.00
2013-11-15,54,45,38,41,32,24,74,63,40,30.25,30.17,10,6,14,0.00
2013-11-16,53,46,43,48,40,-100,97,80,65,30.33,30.23,10,4,11,0.04
2013-11-17,59,55,48,59,54,47,99,98,96,30.25,29.83,7,5,12,0.01
2013-11-18,67,60,53,59,41,24,99,57,23,29.79,29.63,15,11,28,0.06
2013-11-19,51,44,35,27,23,21,59,44,35,30.30,29.79,22,14,38,0.00
2013-11-20,44,38,31,26,20,17,67,50,34,30.56,30.32,15,10,24,0.00
2013-11-21,52,50,45,43,39,31,77,67,57,30.56,30.40,14,8,16,0.00
2013-11-22,58,53,48,52,48,42,90,82,71,30.38,29.92,13,6,22,0.00
2013-11-23,53,43,33,50,25,-100,89,51,30,30.01,29.91,21,13,38,0.00
2013-11-24,31,26,23,16,-1,-5,53,31,25,30.38,29.99,35,18,46,0.00
2013-11-25,36,28,21,13,8,0,61,44,30,30.50,30.33,13,8,20,0.00
2013-11-26,45,37,31,42,24,16,89,60,38,30.34,30.11,13,7,18,0.06
2013-11-27,59,43,35,58,35,21,96,74,55,29.71,29.36,24,18,39,0.00
2013-11-28,37,32,29,21,14,9,60,48,31,30.47,29.76,22,13,36,0.00
2013-11-29,40,33,27,21,18,16,76,57,38,30.69,30.46,14,7,17,0.00
2013-11-30,46,36,27,40,23,-100,79,63,54,30.71,30.37,19,9,22,0.00
2013-12-1,51,42,32,37,33,28,86,73,46,30.31,30.01,9,5,13,0.00
2013-12-2,48,41,33,38,33,28,96,75,59,30.00,29.87,5,3,10,0.00
2013-12-3,51,44,33,42,38,32,97,79,63,29.98,29.86,7,4,10,0.00
2013-12-4,50,43,35,47,39,32,97,86,78,30.09,29.99,7,3,8,0.00
2013-12-5,54,52,50,52,51,50,99,97,94,30.06,29.99,11,7,19,0.00
2013-12-6,55,48,41,55,48,39,99,97,94,30.07,29.89,13,5,24,0.26
2013-12-7,41,36,31,34,23,-100,90,66,56,30.48,30.19,13,10,25,0.00
2013-12-8,40,31,26,38,24,16,100,78,57,30.55,30.33,20,11,28,0.36
2013-12-9,47,41,35,47,40,34,98,96,94,30.31,29.97,22,12,31,0.51
2013-12-10,35,32,27,33,30,23,98,91,80,30.11,29.88,14,7,18,0.04
2013-12-11,33,29,24,22,18,13,85,64,44,30.35,30.15,21,8,25,0.01
2013-12-12,27,24,21,17,8,0,72,54,33,30.35,30.19,19,9,24,0.00
2013-12-13,37,28,19,18,12,7,68,53,38,30.31,30.14,18,8,26,0.05
2013-12-14,37,33,29,34,23,-100,94,74,61,30.42,29.89,24,14,33,0.14
2013-12-15,52,39,33,51,30,21,99,71,58,29.85,29.47,24,12,34,0.00
2013-12-16,32,28,21,22,11,5,71,51,35,30.22,29.85,20,10,32,0.00
2013-12-17,44,33,25,43,28,11,97,82,54,30.20,29.89,15,7,21,0.11
2013-12-18,38,30,24,24,20,18,92,69,45,30.17,29.90,23,11,27,0.00
2013-12-19,48,39,27,30,25,19,76,58,38,30.19,30.03,11,6,18,0.00
2013-12-20,55,47,40,44,34,29,94,61,40,30.09,29.97,16,6,21,0.00
2013-12-21,60,51,46,50,44,-100,95,81,66,29.99,29.90,12,7,19,0.00
2013-12-22,59,55,52,54,53,51,99,94,82,29.93,29.85,15,11,29,0.01
2013-12-23,55,49,43,53,47,37,99,93,80,30.11,29.88,15,10,28,0.25
2013-12-24,42,36,29,33,22,13,71,57,42,30.30,30.08,20,12,29,0.00
2013-12-25,31,26,20,20,9,4,64,50,35,30.51,30.33,16,8,30,0.00
2013-12-26,41,31,25,25,21,17,80,68,50,30.40,30.17,12,6,24,0.00
2013-12-27,43,33,27,22,19,12,80,60,31,30.37,30.27,13,5,22,0.00
2013-12-28,57,42,28,27,23,-100,82,51,28,30.29,30.08,16,9,28,0.00
2013-12-29,50,44,42,49,33,27,95,67,51,30.07,29.44,11,6,32,0.23
2013-12-30,46,38,26,39,29,11,91,71,50,30.17,29.72,18,10,26,0.00
2013-12-31,37,29,23,23,13,9,63,52,44,30.27,30.06,17,9,29,0.00
2014-1-1,39,32,24,31,17,7,78,57,40,30.40,30.22,15,7,25,0.00
2014-1-2,42,35,27,38,33,26,100,91,79,30.20,29.59,28,21,36,0.00